This is the latest recevied weather packets stored in our database for station/object OH7GGX-14. If no packets are shown the sender has not sent any weather packets the latest 10 day(s).
| Time | Temp. | Humidity | Pressure | Rain* | Wind** | Luminosity | Snow |
|---|---|---|---|---|---|---|---|
| 1777881696 | 12.78° C | 54% | 1007.2 hPa | 0 mm | - | - | - |
| 1777881096 | 12.78° C | 54% | 1007.3 hPa | 0 mm | - | - | - |
| 1777880496 | 12.22° C | 54% | 1007.5 hPa | 0 mm | - | - | - |
| 1777879896 | 12.22° C | 54% | 1007.5 hPa | 0 mm | - | - | - |
| 1777879296 | 12.22° C | 55% | 1007.3 hPa | 0 mm | - | - | - |
| 1777878696 | 11.67° C | 56% | 1007.5 hPa | 0 mm | - | - | - |
| 1777878096 | 11.67° C | 57% | 1007.7 hPa | 0 mm | - | - | - |
| 1777877496 | 11.11° C | 62% | 1007.7 hPa | 0 mm | - | - | - |
| 1777876896 | 10.56° C | 65% | 1007.8 hPa | 0 mm | - | - | - |
| 1777876296 | 10° C | 68% | 1008 hPa | 0 mm | - | - | - |
| 1777875696 | 9.44° C | 72% | 1008 hPa | 0 mm | - | - | - |
| 1777875096 | 8.89° C | 76% | 1008 hPa | 0 mm | - | - | - |
| 1777874496 | 8.33° C | 80% | 1008.1 hPa | 0 mm | - | - | - |
| 1777873896 | 7.78° C | 89% | 1008.2 hPa | 0 mm | - | - | - |
| 1777873296 | 6.67° C | 99% | 1008.3 hPa | 0 mm | - | - | - |
| 1777872696 | 6.11° C | 99% | 1008.4 hPa | 0 mm | - | - | - |
| 1777872096 | 5° C | 99% | 1008.4 hPa | 0 mm | - | - | - |
| 1777871496 | 4.44° C | 99% | 1008.7 hPa | 0 mm | - | - | - |
| 1777870896 | 3.89° C | 99% | 1008.9 hPa | 0 mm | - | - | - |
| 1777870296 | 3.33° C | 99% | 1008.8 hPa | 0 mm | - | - | - |
| 1777869696 | 2.78° C | 99% | 1008.9 hPa | 0 mm | - | - | - |
| 1777869096 | 2.22° C | 99% | 1008.9 hPa | 0 mm | - | - | - |
| 1777868496 | 1.11° C | 99% | 1008.9 hPa | 0 mm | - | - | - |
| 1777867896 | 0.56° C | 99% | 1009 hPa | 0 mm | - | - | - |
| 1777867296 | 0° C | 99% | 1009 hPa | 0 mm | - | - | - |
* Rain latest hour (hover to see other rain measurements)
** Current wind speed in m/s (hover to see current wind gust speed)